QPF
0.05 0.09 0.12 0.13 0.11 0.08 0.07 0.08 0.11 0.13 0.14 0.16 0.10 0.09 0.09 0.08 0.06 0.05 0.04 0.04 0.03 0.03 0.02 0.02 0.02 0.02 0.03 0.03 0.03 0.04 0.03 0.02 0.01 0.00 0.00 0.00 0.00 0.00 0.00 0.00 0.00 0.00 0.01
0.07 0.09 0.11 0.10 0.08 0.05 0.06 0.07 0.09 0.10 0.10 0.12 0.12 0.09 0.07 0.07 0.07 0.06 0.06 0.06 0.05 0.03 0.02 0.02 0.01 0.01 0.02 0.04 0.04 0.03 0.02 0.02 0.01 0.01 0.00 0.00 0.00 0.00 0.00 0.00 0.00 0.00 0.01
0.10 0.08 0.05 0.05 0.04 0.03 0.04 0.06 0.05 0.05 0.07 0.07 0.11 0.12 0.09 0.06 0.04 0.04 0.04 0.05 0.07 0.06 0.05 0.02 0.01 0.01 0.01 0.02 0.02 0.02 0.02 0.02 0.02 0.01 0.01 0.00 0.01 0.00 0.01 0.00 0.00 0.00 0.00
0.05 0.04 0.03 0.03 0.04 0.03 0.03 0.05 0.04 0.03 0.03 0.03 0.05 0.09 0.08 0.07 0.04 0.02 0.02 0.03 0.03 0.04 0.05 0.04 0.03 0.02 0.01 0.01 0.02 0.02 0.02 0.02 0.02 0.02 0.01 0.01 0.01 0.01 0.01 0.00 0.00 0.00 0.00
0.05 0.03 0.02 0.02 0.04 0.04 0.03 0.03 0.03 0.03 0.03 0.03 0.03 0.05 0.07 0.05 0.04 0.03 0.02 0.02 0.01 0.02 0.02 0.02 0.03 0.03 0.03 0.02 0.03 0.02 0.02 0.02 0.02 0.02 0.02 0.01 0.01 0.01 0.01 0.01 0.01 0.01 0.01
0.06 0.04 0.02 0.02 0.03 0.04 0.04 0.03 0.03 0.02 0.02 0.02 0.03 0.03 0.05 0.05 0.03 0.02 0.02 0.02 0.01 0.02 0.02 0.02 0.02 0.02 0.03 0.03 0.03 0.02 0.02 0.02 0.02 0.02 0.01 0.01 0.01 0.01 0.01 0.01 0.01 0.01 0.01
0.06 0.04 0.03 0.03 0.02 0.02 0.03 0.04 0.03 0.03 0.03 0.02 0.02 0.02 0.02 0.03 0.03 0.02 0.01 0.01 0.01 0.01 0.01 0.01 0.01 0.02 0.02 0.01 0.02 0.02 0.02 0.02 0.02 0.02 0.01 0.01 0.02 0.02 0.02 0.02 0.02 0.02 0.01
0.05 0.04 0.03 0.03 0.02 0.02 0.02 0.04 0.04 0.04 0.03 0.03 0.02 0.03 0.03 0.03 0.04 0.02 0.01 0.01 0.01 0.01 0.01 0.01 0.01 0.01 0.01 0.01 0.01 0.01 0.01 0.01 0.01 0.01 0.01 0.01 0.01 0.02 0.02 0.02 0.02 0.03 0.02
0.03 0.02 0.02 0.01 0.01 0.02 0.02 0.03 0.04 0.03 0.03 0.02 0.02 0.03 0.03 0.04 0.05 0.04 0.03 0.01 0.01 0.01 0.01 0.01 0.02 0.01 0.01 0.01 0.01 0.01 0.01 0.01 0.01 0.02 0.01 0.01 0.01 0.01 0.01 0.01 0.01 0.02 0.02
0.02 0.02 0.02 0.02 0.01 0.01 0.01 0.02 0.03 0.03 0.03 0.03 0.02 0.03 0.04 0.05 0.05 0.04 0.03 0.02 0.01 0.01 0.01 0.01 0.02 0.02 0.02 0.01 0.01 0.00 0.00 0.01 0.01 0.01 0.01 0.01 0.00 0.00 0.00 0.00 0.01 0.01 0.01
0.02 0.02 0.01 0.01 0.01 0.01 0.01 0.01 0.01 0.02 0.03 0.03 0.04 0.05 0.04 0.03 0.04 0.04 0.03 0.02 0.01 0.01 0.01 0.01 0.01 0.01 0.01 0.02 0.01 0.01 0.01 0.01 0.01 0.01 0.01 0.00 0.00 0.01 0.00 0.00 0.00 0.01 0.01
0.02 0.02 0.02 0.01 0.01 0.00 0.01 0.01 0.01 0.01 0.01 0.02 0.03 0.03 0.03 0.03 0.04 0.04 0.04 0.03 0.02 0.01 0.01 0.01 0.00 0.01 0.01 0.01 0.01 0.01 0.01 0.01 0.01 0.01 0.01 0.00 0.00 0.01 0.01 0.01 0.01 0.01 0.01
0.04 0.03 0.02 0.02 0.02 0.01 0.01 0.01 0.01 0.01 0.01 0.01 0.01 0.01 0.02 0.02 0.03 0.05 0.05 0.04 0.03 0.02 0.02 0.01 0.01 0.01 0.01 0.01 0.01 0.01 0.01 0.01 0.01 0.01 0.00 0.00 0.00 0.01 0.01 0.01 0.02 0.01 0.01
0.03 0.03 0.03 0.02 0.02 0.02 0.02 0.01 0.01 0.01 0.01 0.02 0.02 0.02 0.02 0.02 0.02 0.03 0.03 0.03 0.03 0.03 0.02 0.02 0.02 0.02 0.02 0.01 0.01 0.01 0.01 0.01 0.01 0.00 0.00 0.00 0.00 0.01 0.01 0.01 0.01 0.01 0.01
0.03 0.03 0.03 0.03 0.02 0.02 0.02 0.02 0.02 0.01 0.02 0.02 0.02 0.03 0.02 0.02 0.02 0.03 0.03 0.03 0.03 0.03 0.04 0.03 0.03 0.02 0.02 0.02 0.02 0.01 0.01 0.01 0.01 0.00 0.00 0.00 0.00 0.01 0.01 0.01 0.01 0.01 0.01
0.03 0.03 0.03 0.02 0.02 0.02 0.03 0.03 0.03 0.02 0.02 0.02 0.01 0.01 0.01 0.01 0.02 0.02 0.03 0.04 0.04 0.05 0.05 0.05 0.05 0.05 0.05 0.04 0.04 0.03 0.03 0.02 0.01 0.01 0.01 0.00 0.01 0.01 0.01 0.02 0.02 0.02 0.02
0.04 0.03 0.03 0.02 0.01 0.02 0.02 0.02 0.03 0.02 0.02 0.02 0.02 0.02 0.02 0.02 0.01 0.02 0.03 0.04 0.04 0.04 0.04 0.05 0.05 0.05 0.05 0.06 0.05 0.05 0.05 0.04 0.04 0.03 0.01 0.01 0.01 0.01 0.01 0.02 0.02 0.02 0.02
0.05 0.04 0.03 0.02 0.01 0.01 0.01 0.01 0.02 0.02 0.02 0.02 0.02 0.02 0.02 0.02 0.02 0.02 0.03 0.03 0.03 0.03 0.03 0.03 0.02 0.02 0.01 0.01 0.01 0.02 0.02 0.02 0.02 0.02 0.01 0.01 0.02 0.02 0.02 0.02 0.02 0.02 0.02
0.05 0.05 0.04 0.03 0.02 0.01 0.01 0.01 0.01 0.02 0.02 0.02 0.02 0.02 0.02 0.02 0.03 0.03 0.03 0.03 0.03 0.02 0.02 0.02 0.02 0.02 0.01 0.01 0.00 0.01 0.01 0.01 0.01 0.01 0.01 0.01 0.02 0.03 0.03 0.02 0.03 0.05 0.05
0.06 0.05 0.05 0.04 0.03 0.02 0.01 0.01 0.01 0.02 0.02 0.02 0.02 0.02 0.03 0.03 0.02 0.03 0.03 0.03 0.03 0.03 0.02 0.02 0.01 0.01 0.01 0.01 0.01 0.01 0.01 0.01 0.01 0.00 0.01 0.01 0.01 0.01 0.01 0.02 0.03 0.04 0.04
0.07 0.07 0.05 0.03 0.02 0.02 0.02 0.03 0.03 0.03 0.03 0.02 0.02 0.02 0.03 0.02 0.02 0.02 0.02 0.03 0.03 0.04 0.03 0.02 0.02 0.01 0.01 0.01 0.01 0.01 0.01 0.01 0.01 0.01 0.01 0.01 0.01 0.01 0.01 0.01 0.02 0.03 0.04
0.04 0.05 0.06 0.04 0.03 0.03 0.03 0.04 0.05 0.07 0.07 0.07 0.06 0.04 0.04 0.04 0.02 0.02 0.02 0.02 0.03 0.03 0.03 0.03 0.03 0.02 0.02 0.01 0.01 0.01 0.01 0.01 0.01 0.01 0.01 0.01 0.01 0.01 0.01 0.01 0.02 0.02 0.02
0.03 0.03 0.04 0.03 0.02 0.02 0.03 0.03 0.04 0.06 0.06 0.07 0.06 0.06 0.06 0.06 0.05 0.04 0.03 0.03 0.03 0.02 0.03 0.02 0.02 0.02 0.02 0.02 0.02 0.01 0.01 0.01 0.01 0.02 0.03 0.03 0.02 0.01 0.02 0.02 0.02 0.02 0.02
0.03 0.03 0.03 0.02 0.01 0.01 0.02 0.02 0.03 0.04 0.05 0.05 0.04 0.04 0.04 0.04 0.03 0.03 0.03 0.03 0.03 0.02 0.02 0.02 0.02 0.02 0.02 0.02 0.02 0.02 0.01 0.01 0.01 0.02 0.03 0.03 0.03 0.03 0.03 0.04 0.04 0.03 0.03
0.03 0.03 0.03 0.02 0.01 0.01 0.01 0.02 0.02 0.02 0.03 0.04 0.03 0.03 0.03 0.02 0.02 0.02 0.02 0.02 0.02 0.02 0.01 0.01 0.01 0.02 0.01 0.01 0.02 0.02 0.02 0.03 0.03 0.03 0.02 0.02 0.02 0.02 0.03 0.04 0.04 0.04 0.04
0.04 0.04 0.04 0.02 0.01 0.01 0.01 0.01 0.02 0.02 0.02 0.02 0.02 0.02 0.02 0.01 0.01 0.01 0.01 0.01 0.01 0.01 0.01 0.01 0.01 0.01 0.01 0.01 0.01 0.01 0.02 0.02 0.03 0.02 0.02 0.02 0.02 0.02 0.02 0.03 0.04 0.05 0.05
MSLP
1013.83 1014.16 1014.51 1014.84 1015.14 1015.40 1015.63 1015.83 1016.03 1016.25 1016.51 1016.83 1017.21 1017.64 1018.09 1018.55 1019.00 1019.41 1019.77 1020.08 1020.34 1020.55 1020.72 1020.86 1020.98 1021.10 1021.23 1021.38 1021.57 1021.79 1022.05 1022.34 1022.64 1022.93 1023.17 1023.35 1023.44 1023.43 1023.33 1023.15 1022.91 1022.65 1022.39
1013.95 1014.27 1014.61 1014.95 1015.26 1015.53 1015.77 1015.99 1016.20 1016.43 1016.68 1016.98 1017.33 1017.73 1018.15 1018.60 1019.04 1019.46 1019.86 1020.20 1020.50 1020.73 1020.92 1021.06 1021.16 1021.24 1021.33 1021.43 1021.58 1021.77 1022.03 1022.33 1022.66 1022.99 1023.28 1023.52 1023.66 1023.69 1023.60 1023.42 1023.15 1022.84 1022.51
1014.05 1014.37 1014.71 1015.05 1015.36 1015.65 1015.91 1016.15 1016.37 1016.61 1016.86 1017.15 1017.48 1017.84 1018.24 1018.66 1019.09 1019.52 1019.93 1020.30 1020.63 1020.90 1021.11 1021.26 1021.37 1021.44 1021.50 1021.58 1021.69 1021.87 1022.10 1022.40 1022.74 1023.10 1023.43 1023.70 1023.88 1023.95 1023.89 1023.71 1023.44 1023.09 1022.72
1014.09 1014.41 1014.74 1015.08 1015.40 1015.70 1015.98 1016.24 1016.49 1016.75 1017.01 1017.30 1017.62 1017.97 1018.34 1018.74 1019.16 1019.58 1019.99 1020.38 1020.73 1021.03 1021.27 1021.45 1021.57 1021.64 1021.70 1021.76 1021.86 1022.01 1022.22 1022.51 1022.84 1023.20 1023.54 1023.84 1024.05 1024.15 1024.11 1023.96 1023.70 1023.35 1022.96
1014.04 1014.35 1014.67 1015.00 1015.32 1015.63 1015.93 1016.22 1016.51 1016.80 1017.10 1017.41 1017.74 1018.08 1018.44 1018.82 1019.22 1019.63 1020.03 1020.42 1020.78 1021.10 1021.37 1021.57 1021.71 1021.81 1021.88 1021.94 1022.02 1022.15 1022.34 1022.59 1022.90 1023.24 1023.58 1023.88 1024.10 1024.22 1024.23 1024.11 1023.88 1023.56 1023.17
1013.87 1014.17 1014.47 1014.78 1015.09 1015.41 1015.74 1016.06 1016.40 1016.74 1017.08 1017.43 1017.79 1018.15 1018.51 1018.88 1019.26 1019.65 1020.03 1020.41 1020.77 1021.10 1021.38 1021.61 1021.78 1021.90 1021.99 1022.06 1022.14 1022.25 1022.41 1022.63 1022.89 1023.20 1023.51 1023.80 1024.03 1024.17 1024.21 1024.13 1023.94 1023.66 1023.31
1013.60 1013.87 1014.14 1014.43 1014.73 1015.05 1015.39 1015.75 1016.13 1016.53 1016.93 1017.34 1017.73 1018.12 1018.50 1018.87 1019.24 1019.61 1019.98 1020.34 1020.69 1021.02 1021.31 1021.56 1021.76 1021.91 1022.02 1022.11 1022.19 1022.29 1022.43 1022.61 1022.83 1023.09 1023.36 1023.63 1023.85 1024.00 1024.07 1024.03 1023.90 1023.67 1023.36
1013.25 1013.47 1013.71 1013.96 1014.24 1014.55 1014.90 1015.29 1015.72 1016.17 1016.63 1017.10 1017.55 1017.98 1018.39 1018.78 1019.14 1019.50 1019.85 1020.19 1020.53 1020.86 1021.16 1021.43 1021.66 1021.84 1021.99 1022.10 1022.20 1022.30 1022.42 1022.57 1022.75 1022.96 1023.19 1023.41 1023.61 1023.77 1023.85 1023.86 1023.78 1023.60 1023.34
1012.84 1013.01 1013.20 1013.41 1013.66 1013.96 1014.31 1014.71 1015.17 1015.67 1016.19 1016.72 1017.22 1017.71 1018.15 1018.56 1018.94 1019.30 1019.64 1019.98 1020.31 1020.64 1020.95 1021.24 1021.50 1021.72 1021.91 1022.06 1022.18 1022.29 1022.41 1022.53 1022.68 1022.85 1023.03 1023.22 1023.39 1023.53 1023.62 1023.65 1023.60 1023.47 1023.26
1012.37 1012.50 1012.65 1012.81 1013.03 1013.30 1013.64 1014.05 1014.53 1015.06 1015.63 1016.20 1016.77 1017.30 1017.79 1018.23 1018.64 1019.01 1019.36 1019.70 1020.04 1020.38 1020.71 1021.02 1021.31 1021.58 1021.81 1022.00 1022.15 1022.29 1022.41 1022.52 1022.65 1022.78 1022.92 1023.07 1023.21 1023.32 1023.41 1023.44 1023.41 1023.32 1023.14
1011.83 1011.92 1012.03 1012.16 1012.34 1012.59 1012.92 1013.33 1013.82 1014.38 1014.97 1015.59 1016.20 1016.77 1017.31 1017.80 1018.24 1018.64 1019.02 1019.38 1019.73 1020.09 1020.44 1020.78 1021.11 1021.42 1021.69 1021.92 1022.11 1022.27 1022.41 1022.53 1022.64 1022.74 1022.85 1022.96 1023.06 1023.15 1023.21 1023.23 1023.21 1023.13 1022.97
1011.17 1011.24 1011.33 1011.44 1011.60 1011.84 1012.16 1012.57 1013.06 1013.63 1014.25 1014.89 1015.54 1016.16 1016.74 1017.27 1017.76 1018.21 1018.62 1019.01 1019.40 1019.78 1020.15 1020.53 1020.89 1021.23 1021.54 1021.80 1022.04 1022.23 1022.38 1022.51 1022.61 1022.71 1022.79 1022.86 1022.93 1022.98 1023.01 1023.01 1022.98 1022.89 1022.75
1010.35 1010.42 1010.50 1010.61 1010.78 1011.02 1011.34 1011.76 1012.26 1012.84 1013.48 1014.14 1014.82 1015.48 1016.11 1016.69 1017.23 1017.72 1018.18 1018.61 1019.03 1019.44 1019.84 1020.23 1020.62 1020.98 1021.32 1021.62 1021.88 1022.10 1022.27 1022.41 1022.52 1022.60 1022.67 1022.72 1022.75 1022.77 1022.77 1022.75 1022.69 1022.60 1022.46
1009.32 1009.41 1009.51 1009.65 1009.84 1010.11 1010.45 1010.89 1011.41 1012.01 1012.66 1013.36 1014.06 1014.76 1015.43 1016.06 1016.65 1017.19 1017.69 1018.17 1018.62 1019.05 1019.47 1019.88 1020.28 1020.65 1021.00 1021.32 1021.60 1021.83 1022.03 1022.18 1022.30 1022.39 1022.44 1022.48 1022.49 1022.48 1022.45 1022.41 1022.33 1022.23 1022.09
1008.08 1008.20 1008.35 1008.54 1008.78 1009.09 1009.48 1009.96 1010.51 1011.13 1011.82 1012.53 1013.27 1014.00 1014.71 1015.39 1016.03 1016.61 1017.16 1017.67 1018.15 1018.60 1019.03 1019.44 1019.83 1020.21 1020.56 1020.88 1021.16 1021.41 1021.62 1021.79 1021.93 1022.02 1022.08 1022.11 1022.12 1022.10 1022.05 1021.99 1021.90 1021.79 1021.64
1006.66 1006.83 1007.04 1007.29 1007.61 1007.98 1008.44 1008.96 1009.56 1010.22 1010.93 1011.68 1012.45 1013.22 1013.97 1014.68 1015.36 1015.99 1016.57 1017.11 1017.60 1018.06 1018.49 1018.89 1019.27 1019.63 1019.97 1020.28 1020.57 1020.83 1021.05 1021.24 1021.39 1021.51 1021.59 1021.63 1021.64 1021.62 1021.57 1021.50 1021.41 1021.29 1021.15
1005.14 1005.37 1005.65 1005.98 1006.36 1006.82 1007.34 1007.92 1008.57 1009.27 1010.02 1010.80 1011.60 1012.40 1013.18 1013.93 1014.64 1015.30 1015.91 1016.46 1016.97 1017.43 1017.85 1018.23 1018.59 1018.93 1019.25 1019.55 1019.84 1020.10 1020.34 1020.56 1020.74 1020.88 1020.98 1021.05 1021.08 1021.07 1021.03 1020.97 1020.89 1020.78 1020.65
1003.64 1003.92 1004.27 1004.66 1005.12 1005.64 1006.22 1006.86 1007.55 1008.29 1009.08 1009.88 1010.71 1011.53 1012.34 1013.11 1013.85 1014.53 1015.16 1015.73 1016.24 1016.69 1017.10 1017.47 1017.81 1018.13 1018.43 1018.73 1019.01 1019.29 1019.55 1019.78 1019.99 1020.17 1020.31 1020.41 1020.46 1020.48 1020.47 1020.43 1020.36 1020.27 1020.15
1002.25 1002.58 1002.97 1003.43 1003.94 1004.51 1005.14 1005.81 1006.54 1007.31 1008.11 1008.94 1009.78 1010.62 1011.44 1012.23 1012.99 1013.69 1014.33 1014.90 1015.41 1015.86 1016.26 1016.62 1016.94 1017.25 1017.55 1017.84 1018.13 1018.41 1018.69 1018.96 1019.20 1019.41 1019.59 1019.72 1019.81 1019.87 1019.88 1019.87 1019.83 1019.76 1019.67
1001.03 1001.40 1001.83 1002.32 1002.87 1003.47 1004.12 1004.82 1005.55 1006.33 1007.14 1007.97 1008.81 1009.66 1010.49 1011.29 1012.05 1012.76 1013.41 1013.99 1014.50 1014.95 1015.34 1015.69 1016.02 1016.32 1016.61 1016.91 1017.21 1017.51 1017.81 1018.11 1018.38 1018.62 1018.83 1019.00 1019.13 1019.22 1019.26 1019.28 1019.27 1019.24 1019.18
999.99 1000.39 1000.85 1001.36 1001.92 1002.53 1003.18 1003.88 1004.61 1005.38 1006.17 1006.99 1007.83 1008.66 1009.49 1010.29 1011.06 1011.77 1012.42 1013.01 1013.52 1013.97 1014.37 1014.72 1015.05 1015.35 1015.66 1015.96 1016.27 1016.59 1016.91 1017.23 1017.52 1017.79 1018.03 1018.23 1018.38 1018.50 1018.58 1018.63 1018.66 1018.66 1018.65
999.09 999.52 999.99 1000.51 1001.08 1001.68 1002.32 1003.00 1003.71 1004.45 1005.22 1006.02 1006.83 1007.65 1008.47 1009.26 1010.02 1010.73 1011.39 1011.97 1012.50 1012.95 1013.36 1013.72 1014.05 1014.37 1014.68 1014.99 1015.32 1015.65 1015.98 1016.31 1016.62 1016.91 1017.16 1017.38 1017.56 1017.70 1017.81 1017.89 1017.95 1018.00 1018.02
998.25 998.70 999.19 999.72 1000.29 1000.89 1001.51 1002.17 1002.85 1003.56 1004.30 1005.06 1005.85 1006.65 1007.44 1008.22 1008.97 1009.67 1010.33 1010.92 1011.45 1011.91 1012.32 1012.70 1013.04 1013.36 1013.68 1014.01 1014.34 1014.68 1015.02 1015.35 1015.67 1015.96 1016.22 1016.44 1016.63 1016.79 1016.93 1017.04 1017.14 1017.22 1017.29
997.35 997.84 998.37 998.92 999.50 1000.10 1000.72 1001.35 1002.01 1002.69 1003.40 1004.13 1004.89 1005.65 1006.42 1007.18 1007.92 1008.62 1009.27 1009.86 1010.39 1010.86 1011.28 1011.66 1012.01 1012.35 1012.67 1013.00 1013.34 1013.68 1014.02 1014.35 1014.66 1014.95 1015.21 1015.44 1015.64 1015.81 1015.96 1016.10 1016.23 1016.35 1016.46
996.33 996.88 997.47 998.07 998.67 999.29 999.91 1000.54 1001.19 1001.85 1002.53 1003.23 1003.95 1004.69 1005.43 1006.17 1006.89 1007.58 1008.22 1008.80 1009.33 1009.81 1010.23 1010.62 1010.97 1011.32 1011.65 1011.98 1012.32 1012.66 1012.99 1013.32 1013.63 1013.92 1014.18 1014.41 1014.62 1014.80 1014.96 1015.12 1015.27 1015.42 1015.56
995.20 995.83 996.48 997.14 997.80 998.46 999.10 999.74 1000.38 1001.02 1001.68 1002.35 1003.05 1003.75 1004.47 1005.18 1005.88 1006.55 1007.17 1007.75 1008.28 1008.75 1009.18 1009.57 1009.93 1010.27 1010.61 1010.95 1011.29 1011.63 1011.97 1012.30 1012.61 1012.90 1013.17 1013.41 1013.62 1013.81 1013.99 1014.16 1014.33 1014.50 1014.67
Thickness
5688 5686 5685 5682 5681 5680 5679 5677 5676 5676 5675 5674 5674 5673 5673 5672 5671 5669 5668 5667 5666 5666 5666 5666 5666 5665 5664 5664 5663 5662 5661 5660 5658 5658 5658 5657 5657 5657 5657 5656 5655 5655 5655
5684 5681 5679 5677 5675 5674 5674 5673 5671 5671 5670 5669 5669 5668 5669 5667 5666 5664 5663 5663 5662 5662 5662 5662 5662 5661 5660 5660 5659 5658 5657 5656 5655 5653 5653 5652 5652 5652 5651 5650 5651 5650 5650
5679 5676 5673 5672 5670 5669 5669 5668 5667 5667 5666 5664 5664 5664 5664 5663 5662 5661 5660 5659 5658 5658 5658 5658 5658 5657 5656 5655 5655 5654 5653 5652 5650 5649 5648 5647 5646 5646 5645 5645 5646 5645 5646
5673 5671 5669 5668 5667 5665 5665 5664 5662 5662 5660 5660 5659 5658 5658 5658 5657 5656 5655 5654 5653 5653 5653 5654 5654 5653 5653 5652 5651 5649 5648 5646 5645 5643 5642 5641 5640 5640 5639 5639 5640 5640 5641
5667 5666 5664 5664 5663 5661 5660 5659 5658 5657 5656 5655 5654 5653 5653 5652 5652 5651 5650 5650 5649 5648 5649 5649 5650 5650 5650 5649 5648 5646 5644 5641 5640 5638 5637 5636 5635 5634 5634 5634 5634 5634 5635
5662 5661 5660 5658 5658 5657 5656 5655 5654 5652 5651 5650 5649 5648 5648 5649 5648 5647 5646 5645 5644 5644 5644 5644 5644 5645 5645 5644 5644 5642 5640 5638 5635 5634 5632 5631 5631 5630 5629 5628 5628 5628 5629
5657 5656 5654 5653 5652 5652 5651 5650 5649 5647 5645 5644 5644 5643 5643 5644 5644 5643 5642 5642 5641 5640 5639 5639 5640 5641 5639 5639 5638 5637 5635 5634 5633 5632 5630 5630 5629 5627 5625 5623 5623 5623 5624
5650 5650 5649 5648 5647 5646 5645 5643 5642 5641 5640 5639 5638 5638 5638 5639 5639 5638 5637 5637 5636 5636 5636 5635 5634 5634 5635 5634 5632 5631 5630 5629 5628 5628 5628 5628 5626 5624 5622 5621 5620 5619 5620
5644 5644 5644 5643 5643 5642 5640 5639 5638 5636 5635 5634 5634 5634 5633 5634 5633 5633 5632 5631 5631 5631 5631 5631 5630 5630 5630 5628 5627 5626 5625 5624 5624 5623 5623 5622 5621 5620 5618 5616 5615 5614 5616
5638 5639 5639 5638 5638 5637 5636 5634 5633 5631 5630 5629 5629 5629 5629 5629 5629 5628 5627 5627 5626 5626 5626 5626 5626 5625 5624 5623 5622 5621 5620 5620 5618 5618 5616 5616 5615 5614 5613 5613 5612 5611 5611
5632 5633 5633 5633 5632 5632 5631 5629 5627 5626 5624 5623 5623 5623 5623 5623 5623 5623 5622 5621 5621 5621 5621 5621 5621 5620 5619 5618 5617 5616 5616 5614 5612 5611 5611 5610 5610 5610 5610 5609 5608 5608 5608
5625 5626 5626 5627 5627 5627 5625 5623 5622 5620 5618 5617 5617 5617 5617 5618 5618 5618 5616 5616 5616 5616 5616 5617 5617 5615 5614 5612 5611 5611 5610 5608 5607 5606 5605 5605 5606 5606 5606 5605 5605 5605 5605
5618 5619 5619 5620 5620 5620 5619 5618 5616 5614 5612 5611 5611 5611 5612 5612 5613 5612 5612 5612 5611 5611 5612 5612 5611 5610 5608 5607 5607 5606 5604 5603 5602 5601 5602 5602 5603 5602 5601 5601 5601 5600 5600
5611 5612 5613 5613 5613 5613 5613 5612 5611 5609 5608 5607 5606 5607 5607 5607 5607 5607 5607 5607 5606 5606 5606 5605 5605 5604 5603 5602 5602 5601 5600 5599 5598 5598 5598 5598 5598 5597 5596 5596 5596 5597 5597
5604 5605 5606 5606 5606 5606 5606 5606 5606 5606 5605 5604 5604 5603 5603 5603 5604 5603 5603 5602 5602 5602 5600 5599 5599 5599 5599 5598 5598 5597 5597 5596 5595 5594 5594 5593 5593 5593 5593 5592 5592 5592 5592
5596 5598 5599 5599 5599 5600 5600 5600 5600 5600 5600 5600 5600 5599 5600 5600 5600 5599 5599 5598 5597 5596 5595 5596 5596 5595 5595 5595 5594 5594 5593 5592 5592 5591 5590 5590 5590 5589 5589 5588 5588 5588 5589
5589 5590 5592 5593 5593 5593 5593 5593 5594 5595 5595 5594 5594 5594 5594 5595 5595 5595 5594 5593 5592 5591 5592 5593 5592 5592 5592 5591 5591 5590 5590 5590 5588 5587 5587 5587 5586 5586 5585 5585 5585 5585 5586
5583 5584 5585 5586 5587 5587 5588 5588 5588 5589 5590 5590 5590 5590 5590 5590 5590 5590 5588 5587 5587 5587 5589 5590 5590 5589 5588 5588 5588 5588 5588 5586 5585 5584 5584 5584 5583 5583 5583 5583 5583 5583 5584
5577 5577 5578 5579 5580 5580 5581 5581 5582 5583 5584 5584 5585 5586 5586 5586 5585 5585 5584 5584 5586 5586 5586 5586 5587 5586 5586 5586 5585 5585 5585 5584 5583 5582 5582 5582 5581 5581 5581 5581 5581 5580 5580
5570 5571 5572 5573 5573 5574 5574 5575 5576 5577 5578 5579 5580 5581 5581 5581 5582 5581 5580 5581 5582 5583 5584 5584 5583 5583 5582 5582 5582 5582 5582 5581 5581 5580 5580 5580 5579 5579 5579 5578 5578 5578 5578
5564 5565 5566 5567 5566 5567 5567 5568 5570 5571 5572 5573 5575 5575 5575 5577 5578 5578 5578 5578 5578 5579 5580 5580 5580 5579 5579 5578 5577 5578 5578 5578 5578 5577 5577 5577 5577 5577 5576 5576 5576 5576 5576
5557 5558 5559 5560 5560 5560 5561 5562 5563 5565 5566 5568 5569 5569 5569 5571 5572 5573 5574 5574 5575 5575 5576 5576 5576 5576 5575 5575 5575 5574 5574 5574 5574 5574 5574 5574 5574 5574 5574 5573 5573 5573 5573
5550 5551 5552 5553 5554 5554 5554 5556 5557 5558 5560 5561 5562 5563 5564 5565 5566 5568 5569 5570 5571 5571 5572 5572 5572 5572 5572 5572 5571 5571 5571 5571 5571 5571 5570 5571 5571 5571 5570 5570 5570 5570 5570
5543 5544 5545 5547 5548 5548 5549 5550 5551 5552 5553 5554 5555 5556 5557 5558 5560 5562 5563 5565 5566 5566 5566 5567 5567 5567 5567 5567 5567 5567 5567 5567 5567 5567 5567 5567 5567 5568 5567 5567 5567 5567 5567
5537 5538 5539 5541 5541 5542 5542 5543 5544 5545 5546 5548 5549 5550 5551 5552 5554 5556 5557 5558 5559 5560 5561 5561 5562 5562 5562 5563 5563 5563 5563 5563 5563 5563 5563 5563 5564 5564 5564 5564 5563 5563 5562
5532 5533 5534 5535 5536 5536 5536 5537 5538 5539 5540 5541 5542 5543 5545 5546 5547 5549 5550 5551 5553 5554 5555 5556 5557 5557 5558 5559 5559 5559 5559 5559 5559 5559 5559 5559 5560 5560 5559 5559 5559 5558 5558